#timestamp,LO_Frequency,Hit 
1499979615.8,286046990.8,N
1499979635.6,286046991.1,N
1499979655.5,286046990.8,N
1499979675.3,286046992.8,N
1499979695.2,286046991.9,N
1499979715.9,286046992.5,N
1499979735.7,286046992.6,N
1499979755.6,286046990.3,N
1499979775.4,286046990.7,N
1499979795.2,286046991.0,N
1499979815.1,286046991.3,N
1499979816.0,286046991.3,N
1499979835.8,286046991.3,N
1499979855.7,286046991.4,N
1499979875.5,286046991.1,N
1499979895.3,286046991.2,N
1499979915.2,286046991.3,N
1499979935.0,286046991.4,N
1499979935.9,286046991.4,N
1499979955.8,286046988.5,N
1499979975.6,286046991.4,N
1499979995.4,286046991.2,N
1499980015.3,286046991.4,N
1499980035.1,286046990.3,N
1499980055.8,286046990.8,N
1499980075.7,286046991.6,N
1499980095.5,286046991.2,N
1499980115.4,286046991.3,N
1499980135.2,286046991.0,N
1499980155.0,286046989.0,N
1499980155.9,286046989.0,N
1499980175.8,286046991.4,N
1499980195.6,286046989.3,N
1499980215.4,286046988.5,N
1499980235.3,286046988.7,N
1499980255.1,286046991.3,N
1499980275.9,286046988.5,N
1499980295.7,286046991.0,N
1499980315.5,286046991.0,N
1499980335.4,286046990.4,N
1499980355.2,286046993.2,N
1499980375.1,286046991.0,N
1499980376.0,286046991.0,N
1499980395.8,286046990.2,N
1499980415.6,286046991.3,N
1499980435.5,286046991.0,N
1499980455.3,286046991.6,N
1499980475.1,286046988.7,N
1499980495.9,286046990.9,N
1499980515.7,286046991.4,N
1499980535.6,286046991.1,N
1499980555.4,286046994.4,N
1499980575.3,286046992.7,N
1499980595.1,286046994.7,N
1499980596.0,286046994.7,N
1499980615.8,286046992.4,N
1499980635.7,286046992.3,N
1499980655.5,286046994.6,N
1499980675.3,286046994.6,N
1499980695.2,286046994.3,N
1499980715.0,286046998.0,N
1499980715.9,286046998.0,N
1499980735.8,286046996.1,N
1499980755.6,286046994.2,N
1499980775.4,286046993.9,N
1499980795.3,286046994.4,N
1499980815.1,286046994.7,N
1499980835.9,286046992.1,N
1499980855.7,286046995.7,N
1499980875.5,286046995.1,N
1499980895.4,286046997.3,N
1499980915.2,286046998.5,N
1499980935.0,286047000.1,N
1499980935.9,286047000.1,N
1499980955.8,286046999.0,N
1499980975.6,286046997.3,N
1499980995.5,286046997.3,N
1499981015.3,286046995.6,N
1499981035.1,286046999.1,N
1499981055.9,286046999.0,N
1499981075.7,286046998.5,N
1499981095.5,286046998.3,N
1499981115.4,286046998.6,N
1499981135.2,286046998.3,N
1499981155.1,286047000.7,N
1499981156.0,286047000.7,N
1499981175.8,286047000.6,N
1499981195.6,286047000.8,N
1499981215.5,286047001.8,N
1499981235.3,286047003.5,N
1499981255.1,286047001.8,N
1499981275.9,286047003.7,N
1499981295.7,286047001.7,N
1499981315.6,286047002.7,N
1499981335.4,286047004.0,N
1499981355.2,286047002.1,N
1499981375.1,286047003.8,N
1499981376.0,286047003.8,N
1499981395.8,286047002.1,N
1499981415.7,286047001.6,N
1499981435.5,286047005.4,N
1499981455.3,286047007.0,N
1499981475.2,286047005.3,N
1499981495.9,286047006.2,N
1499981515.7,286047004.5,N
1499981535.6,286047007.6,N
1499981555.4,286047003.1,N
1499981575.3,286047005.5,N
1499981595.1,286047004.6,N
1499981596.0,286047004.6,N
1499981615.8,286047004.6,N
1499981635.7,286047001.9,N
1499981655.5,286046999.7,N
1499981675.3,286047000.3,N
1499981695.2,286046999.7,N
1499981715.0,286047003.2,N
1499981715.9,286047003.2,N
1499981735.8,286047003.5,N
1499981755.6,286047004.3,N
1499981775.4,286047001.8,N
1499981795.3,286047000.0,N
1499981815.1,286047002.7,N
1499981835.8,286047001.5,N
1499981855.7,286047004.0,N
1499981875.5,286047004.1,N
1499981895.4,286047002.8,N
1499981915.2,286047003.5,N
1499981935.0,286047002.6,N
1499981935.9,286047002.6,N
1499981955.8,286047001.1,N
1499981975.6,286047002.6,N
1499981995.4,286047000.1,N
1499982015.3,286047001.5,N
1499982035.1,286047002.8,N
1499982055.9,286047001.1,N
1499982075.7,286047002.6,N
1499982095.5,286047004.3,N
1499982115.4,286047003.5,N
1499982135.2,286047000.8,N
1499982155.0,286046998.2,N
1499982156.0,286046998.2,N
1499982175.8,286047002.5,N
1499982195.6,286047005.6,N
1499982215.5,286047004.2,N
1499982235.3,286047004.7,N
1499982255.1,286047006.1,N
1499982275.9,286047006.0,N
1499982295.7,286047004.6,N
1499982315.6,286047005.5,N
1499982335.4,286047006.7,N
1499982355.2,286047008.0,N
1499982375.1,286047007.4,N
1499982376.0,286047007.4,N
1499982395.8,286047006.6,N
1499982415.6,286047007.6,N
1499982435.5,286047004.9,N
1499982455.3,286047006.9,N
1499982475.2,286047006.0,N
1499982495.9,286047003.2,N
1499982515.7,286047007.4,N
1499982535.6,286047006.4,N
1499982555.4,286047008.7,N
1499982575.2,286047006.7,N
1499982595.1,286047005.9,N
1499982596.0,286047005.9,N
1499982615.8,286047007.0,N
1499982635.7,286047004.8,N
1499982655.5,286047005.0,N
1499982675.3,286047004.5,N
1499982695.2,286047005.8,N
1499982715.0,286047007.2,N
1499982715.9,286047007.2,N
1499982735.8,286047005.4,N
1499982755.6,286047003.1,N
1499982775.4,286047006.6,N
1499982795.3,286047008.7,N
1499982815.1,286047006.5,N
1499982835.8,286047006.2,N
1499982855.7,286047007.0,N
1499982875.5,286047007.5,N
1499982895.4,286047006.2,N
1499982915.2,286047007.6,N
1499982935.0,286047005.2,N
1499982935.9,286047005.2,N
1499982955.8,286047006.3,N
1499982975.6,286047006.5,N
1499982995.4,286047006.3,N
1499983015.3,286047007.7,N
1499983035.1,286047010.5,N
1499983055.9,286047008.5,N
1499983075.7,286047006.3,N
1499983095.5,286047006.4,N
1499983115.4,286047009.0,N
1499983135.2,286047006.6,N
1499983155.0,286047006.2,N
1499983156.0,286047006.2,N
1499983175.8,286047008.0,N
1499983195.6,286047007.0,N
